Location: downtown San Diego
(32.7310°N, 117.1990°W)
Time: 20:07:57
(UTC-08:00)

NOSS 3-4 (A) - Pass Details

Date: 19 May 2017
Orbit: 951 x 1261 km, 63.4° (Epoch: 19 November)

Event Time Altitude Azimuth Distance (km) Brightness Sun altitude
Rises 20:00:47 0° 198° (SSW) 3,621 6.4 -4.0°
Reaches altitude 10° 20:03:21 10° 195° (SSW) 2,668 5.7 -4.5°
Maximum altitude 20:09:26 62° 116° (ESE) 1,064 3.5 -5.7°
Drops below altitude 10° 20:15:40 10° 37° (NE) 2,728 5.8 -6.8°
Sets 20:18:18 0° 34° (NE) 3,708 6.5 -7.3°
